Flag for Finland Weather past 2 weeks in Lappeenranta, Finland

Now
27 °F

Passing clouds.


Feels Like: 21 °F
Forecast: 26 / 30 °F
Wind: 5 mph from South

Location: Lappeenranta

Current Time: Jan 27, 2015 at 6:00:50 AM

Latest Report: Jan 27, 2015 at 4:50 AM


Visibility: 5 mi

Pressure: 29.83 "Hg

Humidity: 100%

Dew point: 27 °F

Location of LappeenrantaLocation

Historic Weather in Lappeenranta — Graph

°F

Lappeenranta temperature yesterday

Maximum temperature yesterday: 30 °F (at 12:50 PM)
Minimum temperature yesterday: 25 °F (at 12:20 AM)
Average temperature yesterday: 28 °F

Past Weeks' High & Low Weather Summary

 TemperatureHumidityPressure
High37 °F (Jan 16, 7:50 PM)100% (Jan 14, 4:50 PM)30.51 "Hg (Jan 14, 4:50 PM)
Low-6 °F (Jan 12, 9:20 PM)78% (Jan 12, 4:20 AM)28.94 "Hg (Jan 13, 6:20 AM)
Average22 °F91%29.84 "Hg
* Reported Jan 12 4:20 AM — Jan 27 4:20 AM, Lappeenranta, Weather by CustomWeather, © 2014

Note: Actual official high and low records may vary slightly from our data, if they occured in-between our weather recording intervals... More about our weather records

Advertising

Lappeenranta weather history for previous 24 hours

 ConditionsComfort  
Time TempWeatherWind HumidityBarometerVisibility
4:20 AM
Jan 27
27 °FLow clouds.5 mph93%29.83 "Hg4 mi
3:50 AM27 °FLow clouds.5 mph93%29.86 "Hg4 mi
3:20 AM27 °FLow clouds.6 mph93%29.86 "Hg4 mi
2:50 AM27 °FLow clouds.6 mph93%29.86 "Hg4 mi
2:20 AM27 °FMostly cloudy.7 mph93%29.86 "Hg6 mi
1:50 AM27 °FLow clouds.6 mph93%29.86 "HgN/A
1:20 AM27 °FLow clouds.7 mph93%29.89 "Hg6 mi
12:50 AM27 °FLow clouds.7 mph93%29.89 "Hg5 mi
12:20 AM27 °FLow clouds.7 mph93%29.89 "Hg6 mi
11:50 PM
Jan 26
27 °FMostly cloudy.8 mph100%29.89 "HgN/A
11:20 PM27 °FPartly cloudy.6 mph93%29.89 "HgN/A
10:50 PM27 °FPartly cloudy.6 mph93%29.92 "HgN/A
10:20 PM25 °FPassing clouds.6 mph100%29.92 "HgN/A
9:50 PM25 °FPassing clouds.6 mph100%29.92 "HgN/A
9:20 PM27 °FPassing clouds.5 mph93%29.92 "HgN/A
8:50 PM27 °FPassing clouds.6 mph93%29.92 "HgN/A
8:20 PM28 °FPassing clouds.6 mph93%29.92 "HgN/A
7:50 PM28 °FPassing clouds.6 mph93%29.95 "HgN/A
7:20 PM28 °FPassing clouds.6 mph93%29.95 "HgN/A
6:50 PM28 °FPassing clouds.6 mph93%29.95 "HgN/A
6:20 PM28 °FPassing clouds.3 mph100%29.95 "HgN/A
5:50 PM30 °FPassing clouds.5 mph93%29.95 "HgN/A
5:20 PM30 °FPassing clouds.5 mph93%29.95 "HgN/A
4:50 PM30 °FPassing clouds.6 mph93%29.95 "HgN/A
4:20 PM30 °FLow clouds.5 mph93%29.95 "HgN/A
3:50 PM30 °FPartly sunny.5 mph93%29.95 "HgN/A
3:20 PM30 °FLow clouds.5 mph93%29.95 "HgN/A
2:50 PM30 °FPartly sunny.5 mph93%29.98 "HgN/A
2:20 PM30 °FPartly sunny.5 mph100%29.98 "HgN/A
1:50 PM30 °FLow clouds.3 mph100%29.98 "HgN/A
1:20 PM30 °FLow clouds.3 mph93%30.01 "Hg4 mi
12:50 PM30 °FLow clouds.3 mph93%30.01 "Hg3 mi
12:20 PM28 °FIce fog.3 mph100%30.01 "Hg2 mi
11:50 AM28 °FIce fog.3 mph100%30.01 "Hg1 mi
11:20 AM28 °FIce fog.3 mph100%30.01 "Hg1 mi
10:50 AM28 °FIce fog.3 mph100%30.01 "Hg1 mi
10:20 AM28 °FIce fog.3 mph93%30.04 "Hg1 mi
9:50 AM27 °FIce fog.3 mph100%30.04 "Hg1 mi
9:20 AM27 °FIce fog.5 mph100%30.04 "Hg2 mi
8:50 AM27 °FIce fog.5 mph100%30.04 "Hg2 mi
8:20 AM27 °FIce fog.6 mph100%30.04 "Hg1 mi
7:50 AM27 °FIce fog.6 mph93%30.04 "Hg1 mi
7:20 AM27 °FLow clouds.3 mph93%30.04 "Hg5 mi
6:50 AM27 °FLow clouds.2 mph93%30.04 "Hg6 mi
6:20 AM27 °FMostly cloudy.2 mph93%30.07 "Hg6 mi
Weather by CustomWeather, © 2014

See weather overviewHow to use our weather pages